�N����,����,�~����,�C��,���x,�C��,����,���ϕ���,�ő�u�ԕ���,�ő厞����,���˗�,�I�_���x,�n�����x,�ő啗���N��,DTYPE
"23/05/04","00:10",0.0,16.6,71.9,1018.5,266.8,0.2,1.1,234.0,0.00,11.6,16.3,"00:02:24",1
"23/05/04","00:20",0.0,16.3,73.1,1018.5,292.6,1.3,2.0,319.7,0.00,11.5,16.5,"00:18:36",1
"23/05/04","00:30",0.0,16.1,74.2,1018.5,322.9,1.3,1.9,320.4,0.00,11.5,16.2,"00:29:12",1
"23/05/04","00:40",0.0,15.7,75.2,1018.7,326.0,1.8,2.6,338.4,0.00,11.4,16.4,"00:35:42",1
"23/05/04","00:50",0.0,15.4,76.4,1018.5,317.3,0.8,1.6,290.1,0.00,11.3,16.2,"00:40:50",1
"23/05/04","01:00",0.0,15.1,77.6,1018.2,317.3,1.7,2.5,342.4,0.00,11.3,16.2,"00:53:42",1
"23/05/04","01:10",0.0,14.9,78.3,1018.5,301.5,1.2,2.2,337.3,0.00,11.2,16.3,"01:01:46",1
"23/05/04","01:20",0.0,14.7,78.8,1018.5,300.1,1.2,2.4,317.8,0.00,11.1,16.3,"01:12:32",1
"23/05/04","01:30",0.0,14.7,79.2,1018.0,299.8,1.5,2.4,324.5,0.00,11.2,16.1,"01:26:16",1
"23/05/04","01:40",0.0,14.7,79.4,1018.5,314.7,1.7,2.4,316.5,0.00,11.2,16.2,"01:31:12",1
"23/05/04","01:50",0.0,14.6,79.6,1018.0,307.6,1.6,2.8,331.3,0.00,11.2,16.0,"01:43:18",1
"23/05/04","02:00",0.0,14.5,80.0,1018.0,295.6,1.6,2.6,333.5,0.00,11.1,16.3,"01:59:22",1
"23/05/04","02:10",0.0,14.4,80.4,1017.8,329.1,2.1,3.4,317.5,0.00,11.1,16.0,"02:01:52",1
"23/05/04","02:20",0.0,14.4,80.9,1017.8,309.9,1.7,2.8,316.8,0.00,11.2,16.0,"02:14:00",1
"23/05/04","02:30",0.0,14.2,81.1,1017.5,284.2,1.0,1.7,290.5,0.00,11.0,15.9,"02:20:08",1
"23/05/04","02:40",0.0,14.1,81.5,1018.0,306.5,0.7,1.7,333.4,0.00,11.0,16.2,"02:39:44",1
"23/05/04","02:50",0.0,14.1,82.3,1017.8,320.5,2.0,3.2,325.6,0.00,11.2,15.8,"02:48:18",1
"23/05/04","03:00",0.0,14.1,82.7,1017.8,288.5,1.7,2.7,297.8,0.00,11.2,15.9,"02:54:08",1
"23/05/04","03:10",0.0,14.1,83.0,1017.5,311.2,1.7,2.5,337.9,0.00,11.3,16.0,"03:04:00",1
"23/05/04","03:20",0.0,14.2,83.2,1017.8,300.7,2.1,3.1,315.2,0.00,11.4,16.0,"03:15:28",1
"23/05/04","03:30",0.0,14.0,83.2,1017.5,305.3,2.1,2.8,306.1,0.00,11.2,15.7,"03:20:56",1
"23/05/04","03:40",0.0,14.0,83.5,1017.5,310.7,2.0,3.1,318.0,0.00,11.3,15.8,"03:37:36",1
"23/05/04","03:50",0.0,13.8,83.8,1018.0,295.9,1.3,2.6,313.8,0.00,11.2,15.8,"03:48:48",1
"23/05/04","04:00",0.0,13.7,84.4,1017.5,301.2,2.0,2.8,313.1,0.00,11.2,15.7,"03:59:04",1
"23/05/04","04:10",0.0,13.6,84.8,1017.5,302.0,1.7,2.8,321.9,0.00,11.1,15.8,"04:02:26",1
"23/05/04","04:20",0.0,13.6,85.2,1017.8,309.4,2.2,2.9,300.9,0.00,11.2,15.6,"04:13:04",1
"23/05/04","04:30",0.0,13.5,85.4,1017.8,315.2,2.1,3.1,322.9,0.00,11.1,15.7,"04:25:46",1
"23/05/04","04:40",0.0,13.2,85.6,1017.5,301.0,1.5,2.6,309.4,0.00,10.9,15.5,"04:37:06",1
"23/05/04","04:50",0.0,12.9,85.9,1017.3,286.5,0.6,1.2,268.7,0.00,10.6,15.7,"04:49:40",1
"23/05/04","05:00",0.0,12.7,86.3,1017.5,305.7,1.6,2.1,323.9,0.00,10.5,15.7,"04:53:42",1
"23/05/04","05:10",0.0,12.6,86.9,1017.3,300.8,1.1,2.0,321.1,0.00,10.5,15.5,"05:04:32",1
"23/05/04","05:20",0.0,12.5,87.4,1017.5,297.7,1.5,2.6,313.4,0.00,10.5,15.7,"05:17:22",1
"23/05/04","05:30",0.0,12.4,88.1,1017.5,290.6,1.7,2.6,312.3,0.00,10.5,15.6,"05:29:48",1
"23/05/04","05:40",0.0,12.7,88.5,1017.8,305.7,2.0,3.1,315.0,0.00,10.9,15.6,"05:30:32",1
"23/05/04","05:50",0.0,12.7,88.9,1017.8,313.2,2.1,2.9,313.6,0.00,11.0,15.6,"05:46:52",1
"23/05/04","06:00",0.0,12.5,89.1,1017.5,311.2,1.6,2.1,328.2,0.00,10.8,15.4,"05:50:08",1
"23/05/04","06:10",0.0,12.2,89.4,1017.8,294.3,1.3,1.8,309.9,0.00,10.5,15.3,"06:00:32",1
"23/05/04","06:20",0.0,12.1,89.7,1018.2,309.4,2.0,2.4,322.3,0.00,10.5,15.5,"06:15:50",1
"23/05/04","06:30",0.0,12.3,90.2,1018.2,308.3,2.1,2.6,311.6,0.00,10.8,15.3,"06:27:04",1
"23/05/04","06:40",0.0,12.3,90.5,1018.2,303.6,1.2,1.8,323.1,0.00,10.8,15.4,"06:30:50",1
"23/05/04","06:50",0.0,12.6,90.8,1018.2,293.8,1.0,2.0,309.2,0.01,11.2,15.3,"06:41:12",1
"23/05/04","07:00",0.0,12.9,90.9,1018.7,299.1,1.1,1.8,315.5,0.02,11.5,15.3,"06:56:32",1
"23/05/04","07:10",0.0,13.4,91.3,1019.0,309.3,1.6,1.9,322.6,0.05,12.1,15.2,"07:00:40",1
"23/05/04","07:20",0.0,14.4,91.3,1018.7,295.2,1.2,1.8,310.7,0.07,13.0,15.2,"07:11:40",1
"23/05/04","07:30",0.0,15.4,90.6,1018.7,272.2,0.2,0.8,281.6,0.10,13.9,15.2,"07:20:08",1
"23/05/04","07:40",0.0,16.1,89.9,1019.2,290.7,0.3,1.8,324.6,0.12,14.5,15.2,"07:39:12",1
"23/05/04","07:50",0.0,17.1,88.6,1019.2,327.4,0.8,1.6,327.5,0.14,15.2,15.2,"07:41:20",1
"23/05/04","08:00",0.0,17.3,86.0,1019.2,303.8,0.7,1.6,313.9,0.16,15.0,15.0,"07:59:28",1
"23/05/04","08:10",0.0,17.8,81.8,1019.0,247.0,0.5,1.1,214.6,0.19,14.7,15.2,"08:05:28",1
"23/05/04","08:20",0.0,18.7,76.8,1019.0,238.2,0.3,1.2,228.4,0.22,14.6,15.2,"08:11:04",1
"23/05/04","08:30",0.0,19.5,72.2,1019.0,353.5,0.8,2.6,120.7,0.24,14.4,15.1,"08:29:28",1
"23/05/04","08:40",0.0,19.7,69.6,1018.2,104.2,0.7,1.9,104.0,0.27,14.0,15.2,"08:34:56",1
"23/05/04","08:50",0.0,19.9,68.4,1018.2,135.2,1.0,2.0,120.6,0.29,14.0,15.0,"08:41:52",1
"23/05/04","09:00",0.0,20.0,67.6,1017.8,159.3,1.3,2.7,119.3,0.32,13.9,15.3,"08:57:36",1
"23/05/04","09:10",0.0,20.2,67.7,1017.5,169.5,1.1,3.3,122.8,0.34,14.1,15.3,"09:05:44",1
"23/05/04","09:20",0.0,20.3,66.3,1017.5,134.0,1.5,3.2,107.1,0.37,13.9,15.1,"09:19:36",1
"23/05/04","09:30",0.0,20.8,65.4,1017.1,205.1,1.2,2.4,188.6,0.41,14.1,15.4,"09:25:52",1
"23/05/04","09:40",0.0,21.0,63.7,1016.6,166.9,1.3,3.4,196.1,0.42,13.9,15.4,"09:38:16",1
"23/05/04","09:50",0.0,21.8,64.5,1016.4,194.4,0.8,2.6,67.7,0.45,14.9,15.6,"09:49:04",1
"23/05/04","10:00",0.0,21.9,63.4,1016.1,124.2,1.2,2.8,110.8,0.47,14.7,15.6,"09:53:36",1
"23/05/04","10:10",0.0,21.9,62.4,1016.1,159.0,1.3,2.8,111.9,0.45,14.4,15.5,"10:00:48",1
"23/05/04","10:20",0.0,21.9,61.8,1015.9,125.6,1.6,4.2,120.6,0.45,14.3,15.6,"10:12:24",1
"23/05/04","10:30",0.0,22.2,61.4,1016.1,113.8,1.7,4.7,119.7,0.47,14.5,15.7,"10:28:08",1
"23/05/04","10:40",0.0,22.4,61.1,1015.6,122.2,1.8,3.6,108.4,0.51,14.6,15.8,"10:35:28",1
"23/05/04","10:50",0.0,22.6,60.3,1015.6,151.1,2.1,4.1,111.4,0.50,14.6,15.9,"10:47:04",1
"23/05/04","11:00",0.0,22.8,59.3,1014.9,149.2,2.0,3.5,136.8,0.52,14.5,15.9,"10:56:00",1
"23/05/04","11:10",0.0,23.0,58.0,1015.2,151.1,2.3,4.9,160.3,0.56,14.3,16.0,"11:08:40",1
"23/05/04","11:20",0.0,23.7,56.9,1014.9,162.1,2.2,4.0,125.8,0.57,14.7,16.0,"11:16:08",1
"23/05/04","11:30",0.0,24.1,56.3,1014.9,147.5,2.3,4.3,203.2,0.58,14.9,16.3,"11:27:44",1
"23/05/04","11:40",0.0,23.9,53.6,1014.9,183.5,2.8,5.9,223.0,0.59,14.0,16.2,"11:34:40",1
"23/05/04","11:50",0.0,23.9,52.7,1014.7,170.3,2.6,5.8,209.2,0.59,13.7,16.4,"11:49:04",1
"23/05/04","12:00",0.0,24.1,53.2,1014.7,163.0,2.2,5.8,129.2,0.59,14.0,16.4,"11:56:00",1
"23/05/04","12:10",0.0,24.4,51.7,1014.2,139.4,2.2,4.5,108.8,0.61,13.9,16.3,"12:01:20",1
"23/05/04","12:20",0.0,24.9,53.5,1013.8,164.3,2.1,4.0,155.0,0.61,14.9,16.5,"12:14:56",1
"23/05/04","12:30",0.0,24.7,52.7,1014.0,134.2,2.7,4.9,117.8,0.57,14.4,16.8,"12:27:36",1
"23/05/04","12:40",0.0,24.7,50.5,1013.8,154.1,3.4,5.9,138.2,0.62,13.8,16.7,"12:30:08",1
"23/05/04","12:50",0.0,24.9,49.7,1013.5,221.3,2.8,5.0,249.9,0.62,13.7,17.1,"12:44:24",1
"23/05/04","13:00",0.0,25.0,50.0,1013.3,186.8,3.4,5.9,190.1,0.60,13.9,17.1,"12:56:40",1
"23/05/04","13:10",0.0,25.2,49.2,1012.8,179.1,2.8,5.2,128.5,0.60,13.8,17.1,"13:07:44",1
"23/05/04","13:20",0.0,25.4,48.1,1012.6,213.9,2.6,5.6,192.1,0.59,13.7,17.2,"13:18:32",1
"23/05/04","13:30",0.0,25.5,48.1,1012.6,197.1,3.5,5.6,223.7,0.58,13.8,17.4,"13:23:20",1
"23/05/04","13:40",0.0,25.3,47.2,1012.6,161.7,3.6,6.6,145.2,0.58,13.3,17.2,"13:31:52",1
"23/05/04","13:50",0.0,25.4,46.9,1012.1,202.0,3.2,6.0,132.6,0.58,13.3,17.7,"13:40:02",1
"23/05/04","14:00",0.0,25.3,45.7,1012.1,192.4,3.2,5.8,223.6,0.55,12.8,17.5,"13:55:44",1
"23/05/04","14:10",0.0,25.4,45.2,1011.6,188.1,3.6,6.5,179.6,0.56,12.7,17.6,"14:08:16",1
"23/05/04","14:20",0.0,26.1,42.7,1011.4,202.0,3.0,6.0,238.7,0.55,12.5,17.7,"14:16:00",1
"23/05/04","14:30",0.0,25.7,43.1,1011.6,179.5,3.4,5.4,223.6,0.54,12.3,17.8,"14:20:32",1
"23/05/04","14:40",0.0,25.6,43.9,1011.4,184.5,3.1,4.9,156.0,0.53,12.5,17.8,"14:32:32",1
"23/05/04","14:50",0.0,25.7,47.4,1011.4,189.9,2.7,6.4,229.2,0.50,13.7,18.1,"14:47:20",1
"23/05/04","15:00",0.0,25.8,43.7,1010.9,183.1,2.8,4.4,171.6,0.50,12.6,18.0,"14:52:40",1
"23/05/04","15:10",0.0,25.9,45.1,1010.9,190.2,3.4,5.1,192.2,0.48,13.1,18.2,"15:00:48",1
"23/05/04","15:20",0.0,25.7,45.9,1010.9,183.3,2.8,5.0,137.7,0.44,13.2,18.2,"15:19:04",1
"23/05/04","15:30",0.0,25.8,45.4,1010.7,181.7,2.8,5.9,137.1,0.40,13.2,18.0,"15:25:52",1
"23/05/04","15:40",0.0,25.7,43.3,1010.9,201.1,2.7,5.0,117.0,0.36,12.3,18.4,"15:34:48",1
"23/05/04","15:50",0.0,25.8,42.5,1010.9,248.4,2.0,5.4,227.3,0.33,12.1,18.3,"15:48:32",1
"23/05/04","16:00",0.0,25.2,46.6,1010.7,213.0,2.2,6.0,228.7,0.27,13.0,18.2,"15:55:12",1
"23/05/04","16:10",0.0,25.1,45.6,1010.9,231.6,2.2,4.3,227.9,0.25,12.6,18.4,"16:02:40",1
"23/05/04","16:20",0.0,25.1,48.5,1010.9,239.6,2.3,4.8,240.5,0.27,13.5,18.5,"16:11:36",1
"23/05/04","16:30",0.0,25.3,46.6,1010.2,225.3,2.1,4.0,241.1,0.29,13.1,18.4,"16:20:32",1
"23/05/04","16:40",0.0,25.3,46.8,1010.4,224.3,1.8,3.3,320.8,0.27,13.2,18.4,"16:39:28",1
"23/05/04","16:50",0.0,25.6,47.8,1010.4,290.7,1.7,4.0,239.2,0.24,13.8,18.6,"16:40:56",1
"23/05/04","17:00",0.0,24.9,49.4,1010.7,279.3,1.8,4.4,245.8,0.16,13.6,18.6,"16:56:00",1
"23/05/04","17:10",0.0,24.5,49.7,1010.7,264.7,2.2,4.4,245.5,0.14,13.4,18.7,"17:08:56",1
"23/05/04","17:20",0.0,24.8,48.8,1011.2,267.9,1.8,3.3,227.7,0.17,13.3,18.8,"17:18:48",1
"23/05/04","17:30",0.0,24.7,49.4,1011.2,251.4,1.7,4.3,229.5,0.14,13.4,18.7,"17:27:36",1
"23/05/04","17:40",0.0,24.7,49.5,1011.2,228.1,1.6,4.7,253.5,0.14,13.5,18.3,"17:33:04",1
"23/05/04","17:50",0.0,24.8,50.4,1010.9,220.3,1.3,4.1,227.2,0.15,13.8,18.7,"17:49:28",1
"23/05/04","18:00",0.0,24.1,51.9,1011.4,199.6,2.3,4.2,224.4,0.10,13.6,18.4,"17:58:00",1
"23/05/04","18:10",0.0,23.5,52.6,1011.2,200.1,2.8,5.5,223.2,0.06,13.3,18.8,"18:08:40",1
"23/05/04","18:20",0.0,23.3,53.2,1011.4,231.9,2.6,4.9,239.8,0.04,13.3,18.7,"18:12:32",1
"23/05/04","18:30",0.0,22.7,54.1,1011.2,229.6,3.0,5.1,229.4,0.02,13.0,18.7,"18:22:24",1
"23/05/04","18:40",0.0,22.4,54.9,1011.2,225.5,2.6,4.4,231.7,0.02,12.9,18.8,"18:36:16",1
"23/05/04","18:50",0.0,22.3,55.8,1011.2,233.5,2.3,4.4,212.0,0.02,13.1,18.8,"18:44:48",1
"23/05/04","19:00",0.0,22.0,56.1,1011.2,251.5,2.0,3.6,257.6,0.01,12.9,18.6,"18:53:52",1
"23/05/04","19:10",0.0,21.6,56.4,1011.4,248.0,1.8,4.2,241.7,0.00,12.6,18.6,"19:01:36",1
"23/05/04","19:20",0.0,21.3,57.6,1011.4,262.4,1.3,2.8,258.9,0.00,12.6,18.6,"19:15:28",1
"23/05/04","19:30",0.0,21.1,56.5,1011.4,238.8,2.1,5.2,234.4,0.00,12.2,18.6,"19:25:28",1
"23/05/04","19:40",0.0,20.6,58.0,1011.6,273.3,1.0,1.8,255.8,0.00,12.1,18.6,"19:30:08",1
"23/05/04","19:50",0.0,20.2,60.5,1011.4,321.4,1.5,2.7,240.1,0.00,12.4,18.4,"19:40:56",1
"23/05/04","20:00",0.0,19.7,63.6,1011.9,328.3,1.1,2.0,324.2,0.00,12.6,18.4,"19:59:04",1
"23/05/04","20:10",0.0,19.6,63.1,1011.9,309.1,1.7,2.8,335.6,0.00,12.4,18.5,"20:02:48",1
"23/05/04","20:20",0.0,19.3,64.7,1012.3,331.6,2.5,3.9,343.0,0.00,12.5,18.4,"20:18:32",1
"23/05/04","20:30",0.0,18.7,67.0,1012.3,337.5,2.2,3.2,346.0,0.00,12.5,18.2,"20:21:28",1
"23/05/04","20:40",0.0,18.4,68.4,1012.6,332.6,2.5,4.2,313.2,0.00,12.5,18.3,"20:38:32",1
"23/05/04","20:50",0.0,18.6,68.3,1012.8,334.6,3.2,4.9,336.5,0.00,12.7,18.1,"20:45:04",1
"23/05/04","21:00",0.0,18.5,68.5,1012.8,328.7,2.6,4.1,336.0,0.00,12.6,18.1,"20:52:16",1
"23/05/04","21:10",0.0,18.4,68.7,1012.8,329.8,2.8,3.7,340.2,0.00,12.6,18.1,"21:00:48",1
"23/05/04","21:20",0.0,18.2,69.3,1013.0,328.0,2.2,3.1,337.2,0.00,12.5,18.0,"21:13:04",1
"23/05/04","21:30",0.0,18.0,69.9,1013.0,301.4,2.0,3.5,326.1,0.00,12.5,18.1,"21:21:36",1
"23/05/04","21:40",0.0,17.6,70.8,1013.3,322.8,2.1,2.6,327.8,0.00,12.3,18.2,"21:37:04",1
"23/05/04","21:50",0.0,17.7,71.1,1013.5,331.7,2.3,3.3,333.5,0.00,12.4,18.1,"21:40:32",1
"23/05/04","22:00",0.0,17.6,71.7,1013.8,324.2,2.1,2.6,325.9,0.00,12.5,17.9,"21:51:12",1
"23/05/04","22:10",0.0,17.1,72.9,1013.5,300.0,1.7,2.4,313.6,0.00,12.2,17.8,"22:06:56",1
"23/05/04","22:20",0.0,16.8,74.1,1013.5,318.4,2.0,2.6,310.2,0.00,12.2,17.6,"22:12:56",1
"23/05/04","22:30",0.0,16.5,75.3,1013.3,298.8,1.6,2.4,322.2,0.00,12.2,17.9,"22:25:12",1
"23/05/04","22:40",0.0,16.4,76.7,1013.3,305.1,2.0,2.8,323.6,0.00,12.3,17.7,"22:36:56",1
"23/05/04","22:50",0.0,16.4,77.5,1013.5,305.6,2.3,3.2,298.3,0.00,12.5,17.7,"22:46:06",1
"23/05/04","23:00",0.0,16.6,77.4,1013.5,299.6,2.2,3.1,332.5,0.00,12.7,17.7,"22:51:52",1
"23/05/04","23:10",0.0,16.8,77.2,1013.3,304.0,2.0,3.6,300.5,0.00,12.8,17.7,"23:00:48",1
"23/05/04","23:20",0.0,17.0,76.6,1013.3,299.8,1.7,3.2,341.7,0.00,12.9,17.6,"23:13:28",1
"23/05/04","23:30",0.0,17.0,76.2,1013.5,307.7,1.8,2.2,312.2,0.00,12.8,17.7,"23:22:32",1
"23/05/04","23:40",0.0,17.0,76.1,1013.3,312.9,2.2,2.8,320.1,0.00,12.8,17.7,"23:33:12",1
"23/05/04","23:50",0.0,17.0,76.1,1013.5,317.1,2.3,3.1,315.7,0.00,12.8,17.6,"23:49:52",1
"23/05/04","24:00",0.0,16.6,76.9,1013.3,317.8,2.7,3.5,326.0,0.00,12.6,17.5,"23:51:04",1
